Location: Eime
(52.0772°N, 9.7230°E)
Time: 06:31:48
(UTC+00:00)

Daily predictions for brighter satellites

Satellite Brightness Start Highest point End
(mag) Time Altitude Azimuth Time Altitude Azimuth Time Altitude Azimuth
BREEZE-M DEB (TANK) 4.4 20:15:52 10° W 20:19:51 72° S 20:37:20 10° E
SL-4 R/B 1.9 20:26:42 10° W 20:30:31 86° S 20:34:37 10° E
COSMOS 2406 4.4 20:25:45 10° SW 20:31:19 49° NW 20:36:53 10° NNE
Cosmos 1850 Rocket 4.1 20:27:40 10° S 20:32:46 57° ESE 20:37:52 10° NNE
Cosmos 2315 Rocket 4.1 20:27:02 10° N 20:33:27 83° ENE 20:39:51 10° SSE
Resurs 01 Rocket 4.3 20:31:00 10° SW 20:33:37 15° W 20:36:15 10° NW
SJ 16-02 2.1 20:35:22 10° SSE 20:39:12 32° ESE 20:43:03 10° NE
SPOT 5 3.9 20:35:25 10° SSW 20:39:27 38° W 20:43:37 10° NNW
SeaSat 1 2.9 20:35:44 10° SSE 20:40:33 58° WSW 20:45:27 10° NW
Cosmos 968 Rocket 3.8 20:37:03 10° S 20:41:59 48° ESE 20:46:59 10° NE
Cosmos 2219 Rocket 2.4 20:39:07 10° NNW 20:44:48 71° NE 20:50:29 10° SE
Cosmos 1707 Rocket 3.6 20:42:27 10° S 20:46:51 65° E 20:51:15 10° NNE
Cosmos 1400 Rocket 3.2 20:44:49 10° SSW 20:48:40 64° WNW 20:52:29 10° N
COSMOS 2428 3.5 20:45:03 10° NNW 20:50:31 45° NE 20:55:58 10° ESE
ATLAS CENTAUR R/B 0.9 20:48:36 10° SSW 20:52:04 63° SE 20:55:40 10° NE
SPOT 3 Rocket 3.7 20:47:37 10° S 20:52:45 73° WSW 20:57:57 10° NNW
Cosmos 1741 Rocket 4.0 20:48:36 10° SSW 20:53:52 78° ESE 20:59:12 10° NNE
Cosmos 1814 Rocket 4.1 20:48:59 10° NNW 20:54:20 88° WSW 20:59:40 10° SSE
Meteor 1-21 4.3 20:50:41 10° S 20:56:26 71° E 21:02:16 10° NNE
USA 234 3.3 20:50:03 10° ENE 20:56:29 56° SE 21:02:52 10° SW
Timation 1 Rocket 4.5 20:55:03 10° SW 21:01:01 83° WNW 21:07:02 10° NNE
Landsat 4 4.3 20:58:41 10° S 21:02:00 47° W 21:05:21 10° NNW
Cosmos 1356 Rocket 3.5 20:58:00 10° SSW 21:02:13 85° WNW 21:06:27 10° NNE
Cosmos 1733 Rocket 3.4 20:59:00 10° NNW 21:03:23 64° W 21:07:45 10° S
Cosmos 1953 2.6 21:00:25 10° N 21:04:11 51° ENE 21:07:31 12° SSE
Okean 1-7 3.5 21:01:51 10° SSE 21:05:57 44° E 21:10:05 10° NNE
Okean 2 3.9 21:02:36 11° SSE 21:06:16 41° E 21:10:04 10° NNE
BlueWalker 3 3.3 21:04:55 10° S 21:07:30 18° SE 21:10:07 10° E
Terra 2.9 21:03:49 10° SSW 21:08:15 40° W 21:12:43 10° NNW
Cosmos 1315 Rocket 3.2 21:06:12 10° S 21:09:56 45° E 21:13:47 10° NNE
Cosmos 2360 Rocket 2.9 21:05:01 10° NW 21:10:25 47° WSW 21:15:49 10° S
ARIANE 5 R/B 3.5 21:07:44 11° SE 21:11:34 37° ENE 21:15:36 10° N
ERS-1 Rocket 4.4 21:10:52 10° SSW 21:15:22 33° W 21:19:54 10° NNW
Cosmos 1455 2.1 21:14:33 10° N 21:18:03 64° ENE 21:20:53 15° SSE
Cosmos 1908 Rocket 3.6 21:14:40 10° N 21:19:01 67° ENE 21:22:42 14° SSE
Cosmos 2208 Rocket 4.4 21:15:20 10° NNW 21:20:29 55° ENE 21:25:05 12° SE
SL-27 R/B 2.8 21:18:12 10° SW 21:20:53 48° WNW 21:23:38 10° NNE
Cosmos 1782 Rocket 4.3 21:17:51 10° N 21:21:58 40° ENE 21:25:25 14° SE
GP-B 3.7 21:18:33 10° NNE 21:22:47 42° E 21:26:13 14° SSE
SL-16 R/B 4.2 21:19:10 10° NW 21:23:16 21° W 21:27:21 10° SSW
Nadezhda 1 Rocket 4.3 21:18:49 10° N 21:25:02 56° ENE 21:30:24 14° SSE
BREEZE-M DEB (TANK) 4.2 21:22:35 10° WSW 21:27:12 70° SSE 21:46:51 10° E
Cosmos 2333 Rocket 3.3 21:24:38 10° NW 21:29:54 38° WSW 21:35:09 10° S
Aureole 3 3.9 21:26:21 10° SSW 21:30:31 72° WNW 21:35:46 10° N
Cosmos 1346 Rocket 4.5 21:28:35 10° NW 21:31:53 27° W 21:35:08 10° SSW
Cosmos 1300 Rocket 4.1 21:33:24 10° N 21:37:35 47° ENE 21:40:48 16° SE
Cosmos 2228 Rocket 4.4 21:33:21 10° SW 21:37:40 40° WNW 21:42:00 10° N
SL-16 R/B 4.3 21:35:39 10° NNW 21:40:05 22° NE 21:44:31 10° E
Landsat 5 3.8 21:38:23 10° N 21:42:21 64° WNW 21:46:28 10° SSW
ATLAS 2AS CENTAUR R/B 3.6 21:36:33 10° NW 21:42:34 35° WSW 21:47:58 12° S
COSMOS 2455 3.7 21:38:30 14° SSE 21:42:39 30° ESE 21:47:49 10° NE
Cosmos 1833 4.4 21:39:51 10° SW 21:45:28 74° WNW 21:51:08 10° NNE
Cosmos 2237 Rocket 2.9 21:41:20 10° NNW 21:46:52 48° NE 21:52:14 10° SE
Meteor 1-4 Rocket 3.2 21:44:58 10° SW 21:47:49 41° WNW 21:50:43 10° N
USA 281 3.3 21:43:40 14° SSE 21:49:23 90° ENE 21:56:01 10° NNW
Cosmos 1242 Rocket 1.7 21:47:47 20° S 21:49:29 72° E 21:52:14 10° NNE
Spot 4 4.4 21:47:55 15° SE 21:51:42 49° ENE 21:56:21 10° N
Cosmos 2322 3.9 21:46:16 10° NW 21:51:56 68° WSW 21:56:21 17° SSE
NOSS 0 Rocket 4.0 21:49:43 10° NNW 21:56:00 83° NE 22:01:14 15° SE
Cosmos 2227 Rocket 4.1 21:53:23 10° SE 21:56:02 14° E 21:58:49 10° ENE
Cosmos 1980 4.1 21:54:43 10° NNW 22:00:22 61° NE 22:05:19 13° SE
ALOS 2 3.5 21:57:54 15° SE 22:01:13 41° ENE 22:05:21 10° N
H-2A R/B 2.7 21:58:24 18° SSE 22:01:28 63° ENE 22:05:40 10° N
Cosmos 1703 Rocket 3.7 21:59:28 13° SSW 22:03:26 78° WNW 22:07:54 10° N
Cosmos 2322 Rocket 4.4 22:01:22 10° WNW 22:04:39 16° W 22:07:56 10° SW
SL-4 R/B 2.1 22:05:20 10° W 22:09:11 52° SSW 22:12:22 16° SE
Cosmos 2297 Rocket 3.0 22:11:53 18° SSE 22:15:15 34° ESE 22:20:17 10° NE
SJ 16-02 2.8 22:13:31 10° SW 22:17:29 35° WNW 22:21:31 10° N
Cosmos 1709 Rocket 4.2 22:14:43 17° S 22:19:39 67° E 22:25:57 10° NNE
Cosmos 158 Rocket 4.3 22:17:38 10° NNW 22:22:50 56° WSW 22:26:23 19° S
BREEZE-M DEB (TANK) 3.6 22:21:56 10° W 22:25:04 68° S 22:34:27 10° E
Cosmos 2242 Rocket 3.7 22:23:28 20° S 22:26:32 73° E 22:31:08 10° NNE
MINOTAUR 4 R/B 3.6 22:24:27 10° N 22:27:22 73° WNW 22:28:58 24° SSW
Cosmos 2219 Rocket 3.8 22:23:47 10° NW 22:28:15 24° WSW 22:32:21 11° SSW
Cosmos 1408 2.0 22:27:18 27° SSW 22:28:47 84° W 22:31:48 10° N
ATLAS CENTAUR R/B 3.5 22:27:01 10° W 22:30:01 24° NNW 22:33:07 10° NNE
EXPRESS MD2 2.7 22:29:17 10° W 22:30:57 33° SW 22:30:57 33° SW
CZ-4C R/B 2.2 22:28:53 19° S 22:31:57 47° ESE 22:37:24 10° NE
COSMOS 2428 3.4 22:29:27 10° NW 22:34:46 42° WSW 22:38:32 18° S
CZ-2C R/B 4.3 22:33:13 10° N 22:37:32 53° WNW 22:41:29 12° SW
NOSS 8 (E) 4.2 22:34:57 12° SW 22:38:22 76° SE 22:41:24 10° NE
USA 234 3.5 22:33:09 10° ENE 22:39:42 74° NNW 22:46:13 10° WSW
CENTAUR R/B 3.7 22:37:03 17° SE 22:39:47 23° ESE 22:44:55 10° ENE
BREEZE-M DEB (TANK) 3.3 22:27:35 10° W 22:39:50 70° S 22:43:23 10° ESE
Cosmos 405 Rocket 2.7 22:40:13 10° N 22:43:59 76° ENE 22:46:03 25° SSE
Meteor 2-5 Rocket 3.9 22:40:27 20° S 22:44:39 70° E 22:50:27 10° NNE
BlueWalker 3 1.8 22:41:27 10° WSW 22:45:09 64° SSE 22:48:53 10° ENE
Cosmos 2263 Rocket 4.2 22:43:57 10° SE 22:46:30 13° E 22:49:04 10° ENE
ARIANE 5 R/B 3.9 22:45:12 15° SSW 22:48:03 29° W 22:51:52 10° NNW
Cosmos 773 Rocket 4.2 22:44:26 10° NNW 22:49:31 60° WSW 22:52:47 22° S
Cosmos 1174 4.1 22:45:04 10° NW 22:50:15 81° SW 22:52:58 22° SSE
Okean 1 Rocket 3.8 22:48:19 10° N 22:52:30 43° ENE 22:55:26 18° SE
Cosmos 371 Rocket 3.3 22:53:42 18° SSW 22:57:18 87° WNW 23:02:11 10° NNE
Cosmos 2084 Rocket 3.9 22:57:00 25° S 22:58:56 40° SE 23:02:49 10° ENE
PSLV R/B 3.7 23:01:24 10° NNE 23:05:36 59° ESE 23:07:53 25° S
Cosmos 1892 2.9 23:05:53 28° SSE 23:07:26 50° E 23:10:52 10° NNE
H-2A R/B 2.7 23:04:45 10° NNE 23:08:49 42° E 23:10:58 23° SSE
Cosmos 1777 Rocket 4.0 23:05:53 20° SSW 23:09:32 76° ESE 23:14:50 10° NNE
Cosmos 1538 Rocket 4.4 23:05:13 10° NNW 23:10:24 62° ENE 23:14:45 15° SE
Cosmos 1503 Rocket 4.0 23:07:09 18° SSW 23:11:07 89° SE 23:16:27 10° NNE
Cosmos 1263 4.4 23:07:35 10° N 23:11:14 76° ENE 23:12:40 30° SSE
Cosmos 1703 3.9 23:12:38 19° SW 23:14:55 45° WNW 23:18:29 10° N
Cosmos 2181 Rocket 4.1 23:16:30 10° NNW 23:22:38 66° W 23:26:52 21° S
SL-16 R/B 2.3 23:19:25 10° NNW 23:25:10 77° ENE 23:30:12 14° SE
NOSS 8 (A) 4.5 23:22:26 10° NW 23:25:18 50° SW 23:26:36 30° S
Cosmos 1455 Rocket 3.9 23:23:43 10° N 23:27:59 44° ENE 23:31:18 16° SE
COSMOS 2455 3.2 23:22:12 10° SW 23:28:12 68° NW 23:34:15 10° NE
Cosmos 1825 1.8 23:26:52 30° S 23:28:25 81° E 23:31:52 10° NNE
Cosmos 2151 Rocket 3.9 23:24:15 10° NNW 23:28:34 54° W 23:31:01 24° SSW
Cosmos 1328 4.2 23:26:46 25° SSE 23:28:44 51° E 23:32:32 10° NNE
GEOS 3 Rocket 4.5 23:24:28 10° ENE 23:29:05 32° ESE 23:31:36 21° SSE
NOSS 3-2 (A) 4.2 23:27:46 20° SSE 23:30:25 30° ESE 23:35:36 10° ENE
Cosmos 2237 Rocket 3.0 23:25:38 10° NW 23:30:49 38° WSW 23:34:01 21° SSW
BREEZE-M DEB (TANK) 3.6 23:29:09 15° SW 23:31:24 53° SSE 23:37:57 10° E
Okean 2 Rocket 3.5 23:30:29 10° NNW 23:34:50 52° W 23:37:23 23° SSW
Cosmos 2074 Rocket 4.0 23:30:40 21° S 23:35:03 83° E 23:41:18 10° NNE
ALOS 2 4.0 23:35:18 17° SW 23:37:40 27° W 23:41:27 10° NW
Cosmos 1943 4.5 23:32:34 10° NNW 23:37:51 39° NE 23:43:06 10° ESE
Cosmos 1674 Rocket 3.6 23:35:17 23° SSW 23:37:56 72° WNW 23:42:17 10° N
Cosmos 1378 Rocket 3.8 23:35:17 22° SSW 23:38:02 61° WNW 23:42:25 10° N
Cosmos 2227 Rocket 2.2 23:35:09 21° SSW 23:39:04 73° ESE 23:44:45 10° NNE
Cosmos 1025 Rocket 3.4 23:37:38 23° SSE 23:40:08 55° E 23:44:21 10° NNE
SL-4 R/B 3.7 23:44:37 10° W 23:47:03 18° SW 23:47:03 18° SW
Cosmos 1898 Rocket 4.5 23:47:23 18° SSE 23:50:33 35° ESE 23:55:13 10° NE
Cosmos 332 Rocket 3.9 23:48:04 19° SSW 23:51:31 77° WNW 23:56:27 10° NNE
Cosmos 1354 Rocket 4.5 23:49:34 15° SW 23:53:56 58° WNW 23:59:12 10° NNE
